663  
ASUS42 KCHS 222127  
RWRCHS  
 
REGIONAL WEATHER ROUNDUP  
NATIONAL WEATHER SERVICE CHARLESTON SC  
500 PM EDT SUN APR 22 2018  
 
NOTE: "FAIR" INDICATES FEW OR NO CLOUDS BELOW 12,000 FEET WITH NO  
SIGNIFICANT WEATHER AND/OR S TO VISIBILITY
.  
 
NOT ALL STATIONS ARE QUALITY CONTROLLED. USE DATA WITH CAUTION,  
ESPECIALLY DEWPOINT OBSERVATIONS.  
 
SCZ027-030-031-034>040-042>050-222200-   
..SOUTHEAST SOUTH CAROLINA
 
 
 
CITY SKY/WX TMP DP RH WIND PRES REMARKS
 
N CHARLESTON CLOUDY 71 51 49 E16G22 30.23S  
WATERFRONT PRK NOT AVBL  
MOUNT PLEASANT FAIR 70 55 60 CALM 30.24S  
JOHNS ISLAND MOCLDY 68 55 64 E12 30.24S  
PINOPOLIS N/A 72 50 46 VRB2 30.16F  
MONCKS CORNER CLOUDY 70 46 43 SE5 30.24S  
SUMMERVILLE CLOUDY 70 50 49 E7 30.24R  
BEAUFORT MCAS CLOUDY 69 56 62 E12G20 30.20F  
BEAUFORT ARPT CLOUDY 68 55 64 E14G20 30.20F  
HILTON HEAD IS NOT AVBL  
WALTERBORO DRIZZLE 68 54 60 E8 30.22F  
ALLENDALE CLOUDY 68 55 64 CALM 30.19F  
   
..SOUTHERN MIDLANDS AND PEE DEE
 
 
 
CITY SKY/WX TMP DP RH WIND PRES REMARKS
 
GEORGETOWN FAIR 68 54 60 E9 30.28S  
KINGSTREE CLOUDY 70 46 43 E13 30.25R  
ORANGEBURG CLOUDY 69 51 52 E7 30.21F  
BARNWELL DRIZZLE 68 55 64 E6 30.21S  
AIKEN LGT RAIN 63 59 88 NE5 30.25S  
MANNING MOCLDY 64 45 48 SE3 30.24F  
COLUMBIA LGT RAIN 68 57 68 E8 30.23S  
SUMTER CLOUDY 68 54 60 E5 30.22F  
FLORENCE CLOUDY 72 47 40 SE10 30.26R  
MYRTLE BEACH PTSUNNY 65 54 67 E17 30.30S  
N MYRTLE BEACH PTSUNNY 66 52 60 E10G20 30.29R  
 

 
 
GAZ063-065-086>088-099>101-113>116-118-119-134>141-150-222200-   
..SOUTHEAST GEORGIA
 
 
 
CITY SKY/WX TMP DP RH WIND PRES REMARKS
 
SAVANNAH ARPT CLOUDY 70 56 61 E14 30.17F  
HUNTER AAF PTSUNNY 68 59 73 E15 30.14  
FORT STEWART FAIR 71 58 64 E13 30.13F  
STATESBORO LGT RAIN 69 53 57 E6 30.17S  
SYLVANIA CLOUDY 66 59 77 SE7 30.18F  
CLAXTON MOCLDY 71 60 69 NE13 30.15F  
   
..CSRA, CENTRAL AND FAR SOUTHEAST GEORGIA
 
 
 
CITY SKY/WX TMP DP RH WIND PRES REMARKS
 
THOMSON LGT RAIN 61 60 94 SE7 30.23F  
AUGUSTA-BUSH LGT RAIN 65 61 87 CALM 30.19F  
AUGUSTA-DANIEL LGT RAIN 65 60 84 E7 30.20F  
SWAINSBORO CLOUDY 68 57 68 E16G22 30.15F  
VIDALIA CLOUDY 70 61 73 E13 30.13F  
EASTMAN CLOUDY 69 55 61 E12 30.12F  
HAZLEHURST CLOUDY 71 58 65 E10G17 30.09F  
ALMA CLOUDY 72 60 66 E5G18 30.09F  
WAYCROSS CLOUDY 73 62 68 E12G22 30.09F  
JESUP CLOUDY 73 57 56 SE15G21 30.13S  
BAXLEY CLOUDY 68 61 77 E10G16 30.10F  
BRUNSWICK CLOUDY 72 59 64 E13 30.14F  
SAINT SIMONS CLOUDY 70 64 81 E10 30.13F  
 

 
 
SCZ027-028-034-036>038-045-046-048>050-GAZ119-141-222200-   
..LAKE AND SUPPLEMENTAL COASTAL OBSERVATIONS
 
 
 
STATION/POSITION TIME TEMP WIND PRES WAVE SWELL
 
AIR SEA DIR/SP/G HT/PER HT/PER/DIR  
(UTC) (F) (DEG/KT/KT) (MB) (FT/S) (FT/S/D)  
WINYAH BAY 2045 65 70/ 12 1025.0S  
LAKE MURRAY 2020 67 80/ 3/ 6 1023.0  
ACE BASIN NERRS 2045 69 350/ 5 N/A  
FORT PULASKI 2100 66 65 80/ 13/ 16 1022.1  
SAPELO ISLAND 2100 70 100/ 8 1021.0  
 

 
 
ANZ835-935-AMZ111-154-330-350-352-354-370-450-454-472-222200-   
..C-MAN AND BUOY OBSERVATIONS
 
 
 
STATION/POSITION TIME TEMP WIND PRES WAVE SWELL
 
AIR SEA DIR/SP/G HT/PER HT/PER/DIR  
(UTC) (F) (DEG/KT/KT) (MB) (FT/S) (FT/S/D)  
BUOY 41004 2110 69 67 100/ 14/ 17 1023.6  
BUOY 41008 2050 67 65 90/ 8/ 10 1021.0F 4/ 8 3/110/ 8  
FOLLY BEACH CMAN 2100 65 60/ 14/ 15 1024.5F  
CAPERS NEARSHORE 2108 65 64 60/ 12/ 16 1024.2F  
FRIPP NEARSHORE 2108 65 64 70/ 12/ 19 1022.0F  
 
 
STATION/POSITION TIME TEMP WIND PRES WAVE SWELL
 
AIR SEA DIR/SP/G HT/PER HT/PER/DIR  
(UTC) (F) (DEG/KT/KT) (MB) (FT/S) (FT/S/D)  
5E ST. MARYS GA 2100 67 N/A 4/ 8  
FRYING PAN BUOY 2110 67 70 90/ 14/ 16 1025.4  
BUOY 41025 2110 62 74 40/ 14/ 19 1028.1  
CAPE LOOKOUT NC 2100 60/ 15/ 17 1027.5F  
BUOY 41002 2110 67 72 90/ 16/ 19 1024.9  
BUOY 41010 2110 72 76 90/ 23/ 27 1020.2  
ST AUGUSTINE FL 2100 70 69 100/ 12/ 13 1019.3F  
 

 
 
 
CLICK HERE TO GO TO PREVIOUS BULLETINS.

The Nexlab SC Page
The Nexlab GA Page Main Text Page